Time,TemperatureF,DewpointF,PressureIn,WindDirection,WindDirectionDegrees,WindSpeedMPH,WindSpeedGustMPH,Humidity,HourlyPrecipIn,Conditions,Clouds,dailyrainin,SolarRadiationWatts/m^2,SoftwareType,DateUTC
2013-02-28 00:21:00,59.0,10.0,-100.00,ENE,74,3.0,6.0,14,-99.99,,,0.00,0.000000,,2013-02-28 08:21:00,
2013-02-28 00:42:00,59.0,10.0,-100.00,ENE,74,3.0,6.0,14,-99.99,,,0.00,0.000000,,2013-02-28 08:42:00,
2013-02-28 01:11:00,57.0,8.0,-100.00,NE,49,4.0,8.0,14,0.00,,,0.00,0.000000,,2013-02-28 09:11:00,
2013-02-28 01:21:00,57.0,8.0,-100.00,NE,49,4.0,8.0,14,0.00,,,0.00,0.000000,,2013-02-28 09:21:00,
2013-02-28 01:31:00,57.0,8.0,-100.00,NE,49,4.0,8.0,14,0.00,,,0.00,0.000000,,2013-02-28 09:31:00,
2013-02-28 02:21:00,55.0,11.0,-100.00,ENE,76,9.0,11.0,17,0.00,,,0.00,0.000000,,2013-02-28 10:21:00,
2013-02-28 02:51:00,54.0,11.0,-100.00,ENE,73,10.0,14.0,18,-99.99,,,0.00,0.000000,,2013-02-28 10:51:00,
2013-02-28 03:11:00,54.0,11.0,-100.00,ENE,73,10.0,14.0,18,-99.99,,,0.00,0.000000,,2013-02-28 11:11:00,
2013-02-28 03:41:00,54.0,11.0,-100.00,ENE,73,10.0,14.0,18,-99.99,,,0.00,0.000000,,2013-02-28 11:41:00,
2013-02-28 04:21:00,59.0,6.0,-100.00,ENE,66,8.0,16.0,12,-99.99,,,0.00,0.000000,,2013-02-28 12:21:00,
2013-02-28 06:11:00,58.0,7.0,-100.00,NE,47,3.0,12.0,13,-99.99,,,0.00,0.000000,,2013-02-28 14:11:00,
2013-02-28 07:51:00,63.0,15.0,-100.00,East,93,6.0,11.0,15,-99.99,,,0.00,125.000000,,2013-02-28 15:51:00,
2013-02-28 08:22:00,63.0,15.0,-100.00,East,93,6.0,11.0,15,-99.99,,,0.00,125.000000,,2013-02-28 16:22:00,
2013-02-28 08:42:00,63.0,15.0,-100.00,East,93,6.0,11.0,15,-99.99,,,0.00,125.000000,,2013-02-28 16:42:00,
2013-02-28 08:51:00,70.0,13.0,-100.00,ENE,78,11.0,15.0,11,0.00,,,0.00,355.000000,,2013-02-28 16:51:00,
2013-02-28 09:11:00,70.0,13.0,-100.00,ENE,78,11.0,15.0,11,0.00,,,0.00,355.000000,,2013-02-28 17:11:00,
2013-02-28 09:21:00,70.0,13.0,-100.00,ENE,78,11.0,15.0,11,0.00,,,0.00,355.000000,,2013-02-28 17:21:00,
2013-02-28 09:32:00,70.0,13.0,-100.00,ENE,78,11.0,15.0,11,0.00,,,0.00,355.000000,,2013-02-28 17:32:00,
2013-02-28 09:41:00,70.0,13.0,-100.00,ENE,78,11.0,15.0,11,0.00,,,0.00,355.000000,,2013-02-28 17:41:00,
2013-02-28 09:51:00,73.0,13.0,-100.00,ENE,68,4.0,15.0,10,0.00,,,0.00,547.000000,,2013-02-28 17:51:00,
2013-02-28 10:11:00,73.0,13.0,-100.00,ENE,68,4.0,15.0,10,0.00,,,0.00,547.000000,,2013-02-28 18:11:00,
2013-02-28 10:21:00,73.0,13.0,-100.00,ENE,68,4.0,15.0,10,0.00,,,0.00,547.000000,,2013-02-28 18:21:00,
2013-02-28 10:32:00,73.0,13.0,-100.00,ENE,68,4.0,15.0,10,0.00,,,0.00,547.000000,,2013-02-28 18:32:00,
2013-02-28 10:42:00,73.0,13.0,-100.00,ENE,68,4.0,15.0,10,0.00,,,0.00,547.000000,,2013-02-28 18:42:00,
2013-02-28 10:51:00,75.0,17.0,-100.00,West,277,7.0,13.0,11,0.00,,,0.00,692.000000,,2013-02-28 18:51:00,
2013-02-28 11:11:00,75.0,17.0,-100.00,West,277,7.0,13.0,11,0.00,,,0.00,692.000000,,2013-02-28 19:11:00,
2013-02-28 11:21:00,75.0,17.0,-100.00,West,277,7.0,13.0,11,0.00,,,0.00,692.000000,,2013-02-28 19:21:00,
2013-02-28 11:32:00,75.0,17.0,-100.00,West,277,7.0,13.0,11,0.00,,,0.00,692.000000,,2013-02-28 19:32:00,
2013-02-28 11:41:00,75.0,17.0,-100.00,West,277,7.0,13.0,11,0.00,,,0.00,692.000000,,2013-02-28 19:41:00,
2013-02-28 11:51:00,78.0,17.0,-100.00,WSW,257,6.0,13.0,10,0.00,,,0.00,778.000000,,2013-02-28 19:51:00,
2013-02-28 12:12:00,78.0,17.0,-100.00,WSW,257,6.0,13.0,10,0.00,,,0.00,778.000000,,2013-02-28 20:12:00,
2013-02-28 12:21:00,78.0,17.0,-100.00,WSW,257,6.0,13.0,10,0.00,,,0.00,778.000000,,2013-02-28 20:21:00,
2013-02-28 12:31:00,78.0,17.0,-100.00,WSW,257,6.0,13.0,10,0.00,,,0.00,778.000000,,2013-02-28 20:31:00,
2013-02-28 12:41:00,78.0,17.0,-100.00,WSW,257,6.0,13.0,10,0.00,,,0.00,778.000000,,2013-02-28 20:41:00,
2013-02-28 12:51:00,79.0,15.0,-100.00,ESE,102,8.0,26.0,9,0.00,,,0.00,800.000000,,2013-02-28 20:51:00,
2013-02-28 13:11:00,79.0,15.0,-100.00,ESE,102,8.0,26.0,9,0.00,,,0.00,800.000000,,2013-02-28 21:11:00,
2013-02-28 13:22:00,79.0,15.0,-100.00,ESE,102,8.0,26.0,9,0.00,,,0.00,800.000000,,2013-02-28 21:22:00,
2013-02-28 13:31:00,79.0,15.0,-100.00,ESE,102,8.0,26.0,9,0.00,,,0.00,800.000000,,2013-02-28 21:31:00,
2013-02-28 13:41:00,79.0,15.0,-100.00,ESE,102,8.0,26.0,9,0.00,,,0.00,800.000000,,2013-02-28 21:41:00,
2013-02-28 13:51:00,77.0,20.0,-100.00,WSW,246,16.0,20.0,12,0.00,,,0.00,748.000000,,2013-02-28 21:51:00,
2013-02-28 14:11:00,77.0,20.0,-100.00,WSW,246,16.0,20.0,12,0.00,,,0.00,748.000000,,2013-02-28 22:11:00,
2013-02-28 14:21:00,77.0,20.0,-100.00,WSW,246,16.0,20.0,12,0.00,,,0.00,748.000000,,2013-02-28 22:21:00,
2013-02-28 14:31:00,77.0,20.0,-100.00,WSW,246,16.0,20.0,12,0.00,,,0.00,748.000000,,2013-02-28 22:31:00,
2013-02-28 14:41:00,77.0,20.0,-100.00,WSW,246,16.0,20.0,12,0.00,,,0.00,748.000000,,2013-02-28 22:41:00,
2013-02-28 14:51:00,77.0,24.0,-100.00,WSW,237,11.0,19.0,14,0.00,,,0.00,636.000000,,2013-02-28 22:51:00,
2013-02-28 15:21:00,77.0,24.0,-100.00,WSW,237,11.0,19.0,14,0.00,,,0.00,636.000000,,2013-02-28 23:21:00,
2013-02-28 15:31:00,77.0,24.0,-100.00,WSW,237,11.0,19.0,14,0.00,,,0.00,636.000000,,2013-02-28 23:31:00,
2013-02-28 15:41:00,77.0,24.0,-100.00,WSW,237,11.0,19.0,14,0.00,,,0.00,636.000000,,2013-02-28 23:41:00,
2013-02-28 15:51:00,75.0,24.0,-100.00,WSW,249,12.0,15.0,15,0.00,,,0.00,469.000000,,2013-02-28 23:51:00,
2013-02-28 16:11:00,75.0,24.0,-100.00,WSW,249,12.0,15.0,15,0.00,,,0.00,469.000000,,2013-03-01 00:11:00,
2013-02-28 16:22:00,75.0,24.0,-100.00,WSW,249,12.0,15.0,15,0.00,,,0.00,469.000000,,2013-03-01 00:22:00,
2013-02-28 16:32:00,75.0,24.0,-100.00,WSW,249,12.0,15.0,15,0.00,,,0.00,469.000000,,2013-03-01 00:32:00,
2013-02-28 16:41:00,75.0,24.0,-100.00,WSW,249,12.0,15.0,15,0.00,,,0.00,469.000000,,2013-03-01 00:41:00,
2013-02-28 16:51:00,74.0,23.0,-100.00,West,280,10.0,16.0,15,0.00,,,0.00,263.000000,,2013-03-01 00:51:00,
2013-02-28 17:21:00,74.0,23.0,-100.00,West,280,10.0,16.0,15,0.00,,,0.00,263.000000,,2013-03-01 01:21:00,
2013-02-28 17:31:00,74.0,23.0,-100.00,West,280,10.0,16.0,15,0.00,,,0.00,263.000000,,2013-03-01 01:31:00,
2013-02-28 17:42:00,74.0,23.0,-100.00,West,280,10.0,16.0,15,0.00,,,0.00,263.000000,,2013-03-01 01:42:00,
2013-02-28 17:51:00,68.0,19.0,-100.00,NW,312,6.0,14.0,15,0.00,,,0.00,46.000000,,2013-03-01 01:51:00,
2013-02-28 18:11:00,68.0,19.0,-100.00,NW,312,6.0,14.0,15,0.00,,,0.00,46.000000,,2013-03-01 02:11:00,
2013-02-28 18:21:00,68.0,19.0,-100.00,NW,312,6.0,14.0,15,0.00,,,0.00,46.000000,,2013-03-01 02:21:00,
2013-02-28 18:31:00,68.0,19.0,-100.00,NW,312,6.0,14.0,15,0.00,,,0.00,46.000000,,2013-03-01 02:31:00,
2013-02-28 18:42:00,68.0,19.0,-100.00,NW,312,6.0,14.0,15,0.00,,,0.00,46.000000,,2013-03-01 02:42:00,
2013-02-28 19:11:00,66.0,20.0,-100.00,NW,318,3.0,10.0,17,0.00,,,0.00,0.000000,,2013-03-01 03:11:00,
2013-02-28 19:21:00,66.0,20.0,-100.00,NW,318,3.0,10.0,17,0.00,,,0.00,0.000000,,2013-03-01 03:21:00,
2013-02-28 19:32:00,66.0,20.0,-100.00,NW,318,3.0,10.0,17,0.00,,,0.00,0.000000,,2013-03-01 03:32:00,
2013-02-28 19:51:00,61.0,23.0,-100.00,ENE,59,5.0,8.0,23,0.00,,,0.00,0.000000,,2013-03-01 03:51:00,
2013-02-28 20:11:00,61.0,23.0,-100.00,ENE,59,5.0,8.0,23,0.00,,,0.00,0.000000,,2013-03-01 04:11:00,
2013-02-28 20:21:00,61.0,23.0,-100.00,ENE,59,5.0,8.0,23,0.00,,,0.00,0.000000,,2013-03-01 04:21:00,
2013-02-28 20:32:00,61.0,23.0,-100.00,ENE,59,5.0,8.0,23,0.00,,,0.00,0.000000,,2013-03-01 04:32:00,
2013-02-28 20:41:00,61.0,23.0,-100.00,ENE,59,5.0,8.0,23,0.00,,,0.00,0.000000,,2013-03-01 04:41:00,
2013-02-28 21:22:00,64.0,22.0,-100.00,NNE,18,4.0,6.0,20,0.00,,,0.00,0.000000,,2013-03-01 05:22:00,
2013-02-28 21:51:00,59.0,21.0,-100.00,East,81,6.0,8.0,23,-99.99,,,0.00,0.000000,,2013-03-01 05:51:00,
2013-02-28 22:42:00,59.0,21.0,-100.00,East,81,6.0,8.0,23,-99.99,,,0.00,0.000000,,2013-03-01 06:42:00,
2013-02-28 22:51:00,59.0,20.0,-100.00,East,88,7.0,9.0,22,0.00,,,0.00,0.000000,,2013-03-01 06:51:00,
2013-02-28 23:11:00,59.0,20.0,-100.00,East,88,7.0,9.0,22,0.00,,,0.00,0.000000,,2013-03-01 07:11:00,
2013-02-28 23:21:00,59.0,20.0,-100.00,East,88,7.0,9.0,22,0.00,,,0.00,0.000000,,2013-03-01 07:21:00,
2013-02-28 23:32:00,59.0,20.0,-100.00,East,88,7.0,9.0,22,0.00,,,0.00,0.000000,,2013-03-01 07:32:00,
2013-02-28 23:42:00,59.0,20.0,-100.00,East,88,7.0,9.0,22,0.00,,,0.00,0.000000,,2013-03-01 07:42:00,
2013-02-28 23:51:00,60.0,18.0,-100.00,ENE,68,6.0,9.0,19,0.00,,,0.00,0.000000,,2013-03-01 07:51:00,